| time (UTC) | temp F | wind direction | speed knots | gust knots | rain 1hr in | rain 24hr in | rain mn in | humidity % | barometer mb |
| 20260506211450 | 72 | 100 | 0.9 | 1.7 | 0.00 | 0.00 | 0.00 | 55 | 1021.1 |
| 20260506210450 | 74 | 353 | 6.1 | 9.6 | 0.00 | 0.00 | 0.00 | 54 | 1021.3 |
| 20260506205449 | 72 | 48 | 0.9 | 7.0 | 0.00 | 0.00 | 0.00 | 56 | 1021.3 |
| 20260506204450 | 72 | 317 | 6.1 | 7.8 | 0.00 | 0.00 | 0.00 | 57 | 1021.3 |
| 20260506203450 | 72 | 301 | 7.0 | 9.6 | 0.00 | 0.00 | 0.00 | 56 | 1021.5 |
| 20260506202450 | 72 | 354 | 7.0 | 8.7 | 0.00 | 0.00 | 0.00 | 56 | 1021.7 |
| 20260506201450 | 71 | 22 | 6.1 | 7.8 | 0.00 | 0.00 | 0.00 | 57 | 1022.1 |
| 20260506200448 | 71 | 263 | 2.6 | 4.3 | 0.00 | 0.00 | 0.00 | 56 | 1021.9 |
| 20260506195448 | 71 | 338 | 1.7 | 11.3 | 0.00 | 0.00 | 0.00 | 58 | 1022.0 |
| 20260506194448 | 71 | 29 | 5.2 | 7.0 | 0.00 | 0.00 | 0.00 | 57 | 1022.0 |
| 20260506193448 | 71 | 303 | 6.1 | 7.0 | 0.00 | 0.00 | 0.00 | 59 | 1022.0 |
| 20260506192447 | 70 | 26 | 3.5 | 4.3 | 0.00 | 0.00 | 0.00 | 60 | 1022.1 |
| 20260506191446 | 69 | 65 | 0.9 | 7.8 | 0.00 | 0.00 | 0.00 | 62 | 1022.3 |
| 20260506190445 | 69 | 308 | 4.3 | 7.0 | 0.00 | 0.00 | 0.00 | 62 | 1022.2 |
| 20260506185445 | 68 | 311 | 7.0 | 7.8 | 0.00 | 0.00 | 0.00 | 63 | 1022.7 |
| 20260506184445 | 68 | 261 | 4.3 | 6.1 | 0.00 | 0.00 | 0.00 | 64 | 1022.4 |
| 20260506183443 | 66 | 331 | 4.3 | 5.2 | 0.00 | 0.00 | 0.00 | 67 | 1022.7 |
| 20260506182438 | 66 | 305 | 6.1 | 6.1 | 0.00 | 0.00 | 0.00 | 67 | 1022.6 |
| 20260506181433 | 66 | 352 | 4.3 | 5.2 | 0.00 | 0.00 | 0.00 | 69 | 1022.7 |
| 20260506180432 | 64 | 214 | 2.6 | 4.3 | 0.00 | 0.00 | 0.00 | 70 | 1022.7 |
| 20260506175431 | 64 | 1 | 6.1 | 7.0 | 0.00 | 0.00 | 0.00 | 72 | 1022.9 |
| 20260506174426 | 62 | 227 | 2.6 | 2.6 | 0.00 | 0.00 | 0.00 | 74 | 1022.8 |
| 20260506173426 | 61 | 134 | 2.6 | 4.3 | 0.00 | 0.00 | 0.00 | 76 | 1022.6 |
| 20260506172425 | 61 | 207 | 0.9 | 1.7 | 0.00 | 0.00 | 0.00 | 76 | 1022.8 |
| 20260506171425 | 61 | 191 | 0.9 | 2.6 | 0.00 | 0.00 | 0.00 | 76 | 1022.9 |
| 20260506170425 | 61 | 217 | 4.3 | 6.1 | 0.00 | 0.00 | 0.00 | 76 | 1022.8 |
| 20260506165422 | 59 | 229 | 2.6 | 2.6 | 0.00 | 0.00 | 0.00 | 79 | 1023.2 |
| 20260506164420 | 60 | 256 | 3.5 | 4.3 | 0.00 | 0.00 | 0.00 | 78 | 1022.9 |
| 20260506163419 | 59 | 271 | 2.6 | 4.3 | 0.00 | 0.00 | 0.00 | 80 | 1023.0 |
| 20260506162418 | 58 | 330 | 2.6 | 4.3 | 0.00 | 0.00 | 0.00 | 82 | 1023.3 |
| 20260506161414 | 57 | 246 | 1.7 | 2.6 | 0.00 | 0.00 | 0.00 | 83 | 1023.2 |
| 20260506160414 | 57 | 258 | 2.6 | 4.3 | 0.00 | 0.00 | 0.00 | 83 | 1023.0 |
| 20260506155409 | 58 | 278 | 3.5 | 4.3 | 0.00 | 0.00 | 0.00 | 82 | 1023.2 |
| 20260506153530 | 56 | 150 | 0.0 | 0.0 | 0.00 | 0.00 | 0.00 | 85 | 1023.0 |
| 20260506152530 | 56 | 217 | 0.0 | 0.0 | 0.00 | 0.00 | 0.00 | 86 | 1023.0 |
| 20260506151526 | 55 | 221 | 0.9 | 1.7 | 0.00 | 0.00 | 0.00 | 87 | 1023.4 |
| 20260506150525 | 55 | 187 | 2.6 | 4.3 | 0.00 | 0.00 | 0.00 | 87 | 1023.3 |
| 20260506145525 | 55 | 201 | 0.0 | 1.7 | 0.00 | 0.00 | 0.00 | 88 | 1023.4 |
| 20260506144525 | 54 | 183 | 0.0 | 5.2 | 0.00 | 0.00 | 0.00 | 89 | 1023.5 |
| 20260506143520 | 54 | 179 | 0.0 | 0.0 | 0.00 | 0.00 | 0.00 | 89 | 1023.2 |
| 20260506142515 | 54 | 179 | 0.0 | 0.0 | 0.00 | 0.00 | 0.00 | 89 | 1023.3 |
| 20260506141511 | 54 | 184 | 0.0 | 0.0 | 0.00 | 0.00 | 0.00 | 90 | 1022.9 |
| 20260506140506 | 54 | 188 | 0.0 | 0.0 | 0.00 | 0.00 | 0.00 | 91 | 1022.7 |
| 20260506135506 | 53 | 182 | 0.0 | 0.0 | 0.00 | 0.00 | 0.00 | 91 | 1022.8 |
| 20260506134503 | 53 | 195 | 0.0 | 0.0 | 0.00 | 0.00 | 0.00 | 92 | 1022.7 |
| 20260506133503 | 53 | 195 | 0.0 | 0.0 | 0.00 | 0.00 | 0.00 | 92 | 1022.6 |
| 20260506132502 | 53 | 195 | 0.0 | 0.0 | 0.00 | 0.00 | 0.00 | 92 | 1022.5 |
| 20260506131457 | 53 | 201 | 0.0 | 0.0 | 0.00 | 0.00 | 0.00 | 93 | 1022.4 |
| 20260506130456 | 53 | 201 | 0.0 | 0.0 | 0.00 | 0.00 | 0.00 | 93 | 1022.5 |
| 20260506125452 | 53 | 200 | 0.0 | 0.0 | 0.00 | 0.00 | 0.00 | 93 | 1022.2 |
| 20260506124447 | 53 | 201 | 0.0 | 0.0 | 0.00 | 0.00 | 0.00 | 94 | 1022.1 |
| 20260506123442 | 53 | 190 | 0.0 | 0.0 | 0.00 | 0.00 | 0.00 | 94 | 1022.1 |
| 20260506122442 | 52 | 190 | 0.0 | 0.0 | 0.00 | 0.00 | 0.00 | 94 | 1022.1 |
| 20260506121437 | 52 | 190 | 0.0 | 0.0 | 0.00 | 0.00 | 0.00 | 94 | 1022.2 |
| 20260506120438 | 52 | 191 | 0.0 | 0.0 | 0.00 | 0.00 | 0.00 | 95 | 1022.1 |
| 20260506115433 | 52 | 199 | 0.0 | 0.0 | 0.00 | 0.00 | 0.00 | 95 | 1022.0 |
| 20260506114428 | 52 | 212 | 0.0 | 0.0 | 0.00 | 0.00 | 0.00 | 96 | 1022.0 |
| 20260506113424 | 52 | 201 | 0.0 | 0.0 | 0.00 | 0.00 | 0.00 | 96 | 1021.9 |
| 20260506112424 | 52 | 177 | 0.0 | 0.0 | 0.00 | 0.00 | 0.00 | 96 | 1022.1 |
| 20260506111419 | 52 | 176 | 0.0 | 0.0 | 0.00 | 0.00 | 0.00 | 96 | 1021.5 |
| 20260506110414 | 52 | 157 | 0.0 | 0.0 | 0.00 | 0.00 | 0.00 | 96 | 1021.7 |
| 20260506105412 | 52 | 140 | 0.0 | 0.0 | 0.00 | 0.00 | 0.00 | 96 | 1021.7 |
| 20260506104408 | 51 | 154 | 0.0 | 0.0 | 0.00 | 0.00 | 0.00 | 96 | 1021.6 |
| 20260506103402 | 51 | 146 | 0.0 | 0.0 | 0.00 | 0.00 | 0.00 | 96 | 1021.8 |
| 20260506102357 | 51 | 141 | 0.0 | 0.0 | 0.00 | 0.00 | 0.00 | 96 | 1021.3 |
| 20260506101356 | 50 | 155 | 0.0 | 0.0 | 0.00 | 0.00 | 0.00 | 96 | 1021.6 |
| 20260506100352 | 50 | 166 | 0.0 | 0.0 | 0.00 | 0.00 | 0.00 | 96 | 1021.3 |
| 20260506095348 | 51 | 166 | 0.0 | 0.0 | 0.00 | 0.00 | 0.00 | 96 | 1021.4 |
| 20260506094343 | 51 | 141 | 0.0 | 0.0 | 0.00 | 0.00 | 0.00 | 96 | 1021.2 |
| 20260506093343 | 51 | 164 | 0.0 | 0.0 | 0.00 | 0.00 | 0.00 | 96 | 1021.3 |
| 20260506092339 | 51 | 180 | 0.0 | 0.0 | 0.00 | 0.00 | 0.00 | 96 | 1021.5 |
| 20260506091339 | 51 | 174 | 0.0 | 0.0 | 0.00 | 0.00 | 0.00 | 96 | 1021.3 |
| 20260506090339 | 51 | 156 | 0.0 | 0.0 | 0.00 | 0.00 | 0.00 | 96 | 1021.5 |
| 20260506085338 | 51 | 132 | 0.0 | 0.0 | 0.00 | 0.00 | 0.00 | 96 | 1021.6 |
| 20260506084338 | 51 | 135 | 0.0 | 0.0 | 0.00 | 0.00 | 0.00 | 95 | 1021.7 |
| 20260506083338 | 51 | 184 | 0.0 | 0.0 | 0.00 | 0.00 | 0.00 | 95 | 1021.4 |
| 20260506082337 | 52 | 184 | 0.0 | 0.0 | 0.00 | 0.00 | 0.00 | 94 | 1021.6 |
| 20260506081337 | 52 | 184 | 0.0 | 0.0 | 0.00 | 0.00 | 0.00 | 94 | 1021.7 |
| 20260506080337 | 53 | 184 | 0.0 | 0.0 | 0.00 | 0.00 | 0.00 | 94 | 1021.7 |
| 20260506073327 | 53 | 184 | 0.0 | 0.0 | 0.00 | 0.00 | 0.00 | 94 | 1021.4 |
| 20260506072327 | 53 | 184 | 0.0 | 0.0 | 0.00 | 0.00 | 0.00 | 93 | 1021.4 |
| 20260506071323 | 52 | 183 | 0.0 | 0.0 | 0.00 | 0.00 | 0.00 | 93 | 1021.1 |
| 20260506070322 | 52 | 194 | 0.0 | 0.0 | 0.00 | 0.00 | 0.00 | 93 | 1021.1 |
| 20260506062311 | 54 | 229 | 1.7 | 1.7 | 0.00 | 0.01 | 0.01 | 91 | 1020.6 |
| 20260506061310 | 54 | 245 | 2.6 | 2.6 | 0.00 | 0.01 | 0.01 | 90 | 1020.8 |
| 20260506060306 | 54 | 234 | 3.5 | 4.3 | 0.00 | 0.01 | 0.01 | 91 | 1020.7 |
| 20260506051255 | 55 | 220 | 1.7 | 2.6 | 0.00 | 0.01 | 0.01 | 88 | 1020.3 |
| 20260506050250 | 55 | 218 | 3.5 | 4.3 | 0.00 | 0.01 | 0.01 | 87 | 1020.0 |
| 20260506044250 | 56 | 229 | 3.5 | 4.3 | 0.00 | 0.01 | 0.01 | 86 | 1020.0 |
| 20260506043244 | 56 | 245 | 2.6 | 2.6 | 0.00 | 0.01 | 0.01 | 86 | 1020.2 |
| 20260506042241 | 56 | 229 | 2.6 | 2.6 | 0.00 | 0.01 | 0.01 | 86 | 1019.9 |
| 20260506041241 | 56 | 237 | 2.6 | 4.3 | 0.00 | 0.01 | 0.01 | 85 | 1019.6 |
| 20260506040236 | 56 | 243 | 2.6 | 4.3 | 0.00 | 0.01 | 0.01 | 84 | 1019.6 |
| 20260506035235 | 57 | 218 | 2.6 | 2.6 | 0.00 | 0.01 | 0.01 | 84 | 1019.5 |
| 20260506034235 | 57 | 203 | 5.2 | 6.1 | 0.00 | 0.01 | 0.01 | 84 | 1019.4 |
| 20260506033230 | 57 | 213 | 3.5 | 4.3 | 0.00 | 0.01 | 0.01 | 83 | 1019.3 |
| 20260506032229 | 57 | 197 | 5.2 | 7.0 | 0.00 | 0.01 | 0.01 | 83 | 1019.2 |
| 20260506031229 | 57 | 233 | 4.3 | 5.2 | 0.00 | 0.01 | 0.01 | 83 | 1019.3 |
| 20260506030224 | 57 | 211 | 4.3 | 6.1 | 0.00 | 0.01 | 0.01 | 82 | 1018.8 |
| 20260506025223 | 57 | 210 | 6.1 | 8.7 | 0.00 | 0.01 | 0.01 | 82 | 1018.7 |
| 20260506024223 | 57 | 220 | 4.3 | 7.0 | 0.00 | 0.01 | 0.01 | 81 | 1018.8 |
| 20260506023222 | 57 | 241 | 7.8 | 8.7 | 0.00 | 0.01 | 0.01 | 81 | 1018.8 |
| 20260506022217 | 58 | 233 | 6.1 | 7.8 | 0.00 | 0.01 | 0.01 | 81 | 1018.3 |
| 20260506021217 | 58 | 190 | 4.3 | 7.0 | 0.00 | 0.01 | 0.01 | 80 | 1018.3 |
| 20260506020212 | 58 | 210 | 4.3 | 5.2 | 0.00 | 0.01 | 0.01 | 80 | 1018.2 |
| 20260506015213 | 59 | 190 | 3.5 | 4.3 | 0.00 | 0.01 | 0.01 | 80 | 1018.2 |
| 20260506014211 | 59 | 194 | 4.3 | 5.2 | 0.00 | 0.01 | 0.01 | 79 | 1018.1 |
| 20260506013206 | 59 | 218 | 6.1 | 7.8 | 0.00 | 0.01 | 0.01 | 79 | 1018.3 |
| 20260506012205 | 59 | 209 | 6.1 | 8.7 | 0.00 | 0.01 | 0.01 | 80 | 1018.3 |
| 20260506011204 | 59 | 226 | 7.0 | 8.7 | 0.00 | 0.01 | 0.01 | 79 | 1018.2 |
| 20260506010159 | 60 | 196 | 4.3 | 6.1 | 0.00 | 0.01 | 0.01 | 78 | 1018.2 |
| 20260506005159 | 60 | 219 | 5.2 | 7.8 | 0.00 | 0.01 | 0.01 | 77 | 1017.9 |
| 20260506004159 | 60 | 210 | 4.3 | 6.1 | 0.00 | 0.01 | 0.01 | 76 | 1018.2 |
| 20260506003156 | 60 | 223 | 6.1 | 8.7 | 0.00 | 0.01 | 0.01 | 76 | 1018.0 |
| 20260506002154 | 60 | 213 | 4.3 | 7.8 | 0.00 | 0.01 | 0.01 | 77 | 1018.1 |
| 20260506001154 | 60 | 225 | 6.1 | 7.8 | 0.00 | 0.01 | 0.01 | 77 | 1018.0 |
| 20260506000148 | 60 | 213 | 7.0 | 7.8 | 0.00 | 0.01 | 0.01 | 77 | 1017.7 |
| 20260505235149 | 60 | 188 | 7.0 | 8.7 | 0.00 | 0.01 | 0.01 | 77 | 1017.7 |
| 20260505234148 | 60 | 222 | 5.2 | 6.1 | 0.00 | 0.01 | 0.01 | 78 | 1017.8 |
| 20260505233148 | 59 | 207 | 4.3 | 5.2 | 0.00 | 0.01 | 0.01 | 78 | 1017.9 |
| 20260505232143 | 59 | 214 | 4.3 | 6.1 | 0.00 | 0.01 | 0.01 | 79 | 1017.9 |
| 20260505231139 | 60 | 233 | 4.3 | 7.8 | 0.00 | 0.01 | 0.01 | 78 | 1018.2 |
| 20260505230138 | 59 | 253 | 5.2 | 7.0 | 0.00 | 0.01 | 0.01 | 79 | 1018.3 |
| 20260505225137 | 60 | 290 | 4.3 | 6.1 | 0.00 | 0.01 | 0.01 | 79 | 1017.9 |
| 20260505224137 | 59 | 260 | 6.1 | 8.7 | 0.00 | 0.01 | 0.01 | 79 | 1017.9 |
| 20260505223136 | 59 | 226 | 5.2 | 7.0 | 0.00 | 0.01 | 0.01 | 79 | 1018.2 |
| 20260505222134 | 59 | 245 | 5.2 | 6.1 | 0.00 | 0.01 | 0.01 | 81 | 1018.1 |
| 20260505221134 | 58 | 230 | 7.0 | 7.8 | 0.00 | 0.01 | 0.01 | 81 | 1018.3 |
| 20260505220134 | 58 | 242 | 6.1 | 7.8 | 0.00 | 0.01 | 0.01 | 81 | 1018.1 |
| 20260505215130 | 58 | 251 | 7.0 | 7.8 | 0.00 | 0.01 | 0.01 | 82 | 1018.2 |
| 20260505214130 | 58 | 236 | 7.0 | 7.8 | 0.00 | 0.01 | 0.01 | 81 | 1018.2 |
| 20260505213130 | 58 | 237 | 6.1 | 8.7 | 0.00 | 0.01 | 0.01 | 82 | 1018.3 |
| 20260505212130 | 58 | 260 | 7.8 | 9.6 | 0.00 | 0.01 | 0.01 | 82 | 1018.3 |